Location: Ladd Observatory
(41.8387°N, 71.3996°W)
Time: 19:34:42
(UTC-05:00)

ISS - Visible Passes

Search period start: 02 March 2015 00:00
Search period end: 12 March 2015 01:00
Orbit: 397 x 407 km, 51.6° (Epoch: 02 March)

Date Brightness Start Highest point End Pass type
(mag) Time Alt. Az. Time Alt. Az. Time Alt. Az.
07 Mar -0.1 05:40:41 10° SSE 05:41:46 11° SE 05:42:57 10° ESE visible
09 Mar -1.2 06:28:53 10° SSW 06:31:37 26° SE 06:34:23 10° ENE visible
10 Mar -0.5 05:36:55 10° SSE 05:38:35 14° SE 05:40:20 10° E visible
11 Mar -2.9 06:18:15 10° SW 06:21:26 61° SE 06:24:38 10° ENE visible
